| time (UTC) | temp C | wind direction | speed KPH | gust KPH | rain 1hr cm | rain 24hr cm | rain mn cm | humidity % | barometer mb |
| 20260906131549 | 22 | 260 | 0.0 | 3.2 | 0.00 | 0.00 | 0.00 | 94 | 1020.4 |
| 20260906131044 | 22 | 259 | 0.0 | 0.0 | 0.00 | 0.00 | 0.00 | 95 | 1020.4 |
| 20260906130544 | 22 | 281 | 0.0 | 6.4 | 0.00 | 0.00 | 0.00 | 95 | 1020.4 |
| 20260906130039 | 22 | 255 | 0.0 | 9.7 | 0.00 | 0.00 | 0.00 | 95 | 1020.5 |
| 20260906125536 | 22 | 260 | 0.0 | 3.2 | 0.00 | 0.00 | 0.00 | 95 | 1020.3 |
| 20260906125031 | 22 | 263 | 1.6 | 4.8 | 0.00 | 0.00 | 0.00 | 95 | 1020.5 |
| 20260906124526 | 22 | 275 | 0.0 | 1.6 | 0.00 | 0.00 | 0.00 | 96 | 1020.2 |
| 20260906124021 | 22 | 265 | 0.0 | 4.8 | 0.00 | 0.00 | 0.00 | 95 | 1020.0 |
| 20260906123520 | 22 | 267 | 0.0 | 1.6 | 0.00 | 0.00 | 0.00 | 96 | 1019.9 |
| 20260906123015 | 22 | 241 | 0.0 | 4.8 | 0.00 | 0.00 | 0.00 | 96 | 1019.7 |
| 20260906122509 | 22 | 275 | 0.0 | 1.6 | 0.00 | 0.00 | 0.00 | 96 | 1019.7 |
| 20260906122005 | 22 | 263 | 0.0 | 0.0 | 0.00 | 0.00 | 0.00 | 97 | 1019.5 |
| 20260906121501 | 22 | 275 | 0.0 | 1.6 | 0.00 | 0.00 | 0.00 | 97 | 1019.6 |
| 20260906120957 | 22 | 284 | 0.0 | 0.0 | 0.00 | 0.00 | 0.00 | 97 | 1019.5 |
| 20260906120452 | 21 | 260 | 0.0 | 0.0 | 0.00 | 0.00 | 0.00 | 98 | 1019.3 |
| 20260906115949 | 21 | 266 | 0.0 | 0.0 | 0.00 | 0.00 | 0.00 | 98 | 1019.1 |
| 20260906115444 | 21 | 257 | 0.0 | 4.8 | 0.00 | 0.00 | 0.00 | 98 | 1019.2 |
| 20260906114944 | 21 | 261 | 0.0 | 1.6 | 0.00 | 0.00 | 0.00 | 98 | 1018.9 |
| 20260906114439 | 21 | 327 | 0.0 | 1.6 | 0.00 | 0.00 | 0.00 | 98 | 1018.9 |
| 20260906113935 | 21 | 266 | 0.0 | 1.6 | 0.00 | 0.00 | 0.00 | 98 | 1018.8 |
| 20260906113433 | 21 | 297 | 1.6 | 4.8 | 0.00 | 0.00 | 0.00 | 98 | 1018.8 |
| 20260906112929 | 21 | 262 | 0.0 | 4.8 | 0.00 | 0.00 | 0.00 | 98 | 1018.6 |
| 20260906112424 | 21 | 320 | 1.6 | 4.8 | 0.00 | 0.00 | 0.00 | 97 | 1018.3 |
| 20260906111920 | 21 | 258 | 0.0 | 3.2 | 0.00 | 0.00 | 0.00 | 97 | 1018.2 |
| 20260906111419 | 21 | 253 | 0.0 | 0.0 | 0.00 | 0.00 | 0.00 | 97 | 1018.3 |
| 20260906110914 | 21 | 273 | 0.0 | 1.6 | 0.00 | 0.00 | 0.00 | 97 | 1018.6 |
| 20260906110410 | 21 | 259 | 0.0 | 0.0 | 0.00 | 0.00 | 0.00 | 97 | 1018.4 |
| 20260906105909 | 21 | 262 | 0.0 | 3.2 | 0.00 | 0.00 | 0.00 | 97 | 1018.3 |
| 20260906105404 | 21 | 279 | 0.0 | 0.0 | 0.00 | 0.00 | 0.00 | 97 | 1018.3 |
| 20260906104901 | 21 | 259 | 0.0 | 0.0 | 0.00 | 0.00 | 0.00 | 97 | 1018.1 |
| 20260906104359 | 21 | 265 | 1.6 | 1.6 | 0.00 | 0.00 | 0.00 | 97 | 1018.4 |
| 20260906103858 | 21 | 267 | 0.0 | 3.2 | 0.00 | 0.00 | 0.00 | 97 | 1018.2 |
| 20260906103356 | 21 | 259 | 0.0 | 0.0 | 0.00 | 0.00 | 0.00 | 97 | 1018.1 |
| 20260906102852 | 21 | 259 | 0.0 | 1.6 | 0.00 | 0.00 | 0.00 | 96 | 1018.0 |
| 20260906102351 | 21 | 251 | 0.0 | 0.0 | 0.00 | 0.00 | 0.00 | 96 | 1018.2 |
| 20260906101846 | 21 | 265 | 0.0 | 1.6 | 0.00 | 0.00 | 0.00 | 96 | 1018.1 |
| 20260906101341 | 21 | 272 | 0.0 | 3.2 | 0.00 | 0.00 | 0.00 | 96 | 1018.1 |
| 20260906100837 | 21 | 260 | 0.0 | 0.0 | 0.00 | 0.00 | 0.00 | 96 | 1018.0 |
| 20260906100336 | 21 | 284 | 3.2 | 4.8 | 0.00 | 0.00 | 0.00 | 96 | 1017.7 |
| 20260906095831 | 21 | 260 | 0.0 | 4.8 | 0.00 | 0.00 | 0.00 | 96 | 1017.9 |
| 20260906095327 | 21 | 260 | 0.0 | 6.4 | 0.00 | 0.00 | 0.00 | 96 | 1017.7 |
| 20260906094826 | 21 | 266 | 0.0 | 0.0 | 0.00 | 0.00 | 0.00 | 96 | 1018.0 |
| 20260906094321 | 21 | 275 | 1.6 | 3.2 | 0.00 | 0.00 | 0.00 | 96 | 1017.9 |
| 20260906093817 | 21 | 260 | 0.0 | 0.0 | 0.00 | 0.00 | 0.00 | 96 | 1017.9 |
| 20260906093312 | 21 | 261 | 0.0 | 0.0 | 0.00 | 0.00 | 0.00 | 96 | 1017.8 |
| 20260906092807 | 21 | 259 | 0.0 | 4.8 | 0.00 | 0.00 | 0.00 | 96 | 1018.1 |
| 20260906092305 | 21 | 259 | 0.0 | 1.6 | 0.00 | 0.00 | 0.00 | 96 | 1017.9 |
| 20260906091758 | 21 | 254 | 0.0 | 4.8 | 0.00 | 0.00 | 0.00 | 96 | 1017.8 |
| 20260906091254 | 21 | 281 | 0.0 | 1.6 | 0.00 | 0.00 | 0.00 | 96 | 1018.0 |
| 20260906090750 | 21 | 245 | 0.0 | 0.0 | 0.00 | 0.00 | 0.00 | 96 | 1017.7 |
| 20260906090249 | 21 | 259 | 0.0 | 0.0 | 0.00 | 0.00 | 0.00 | 96 | 1017.9 |
| 20260906085749 | 21 | 258 | 0.0 | 0.0 | 0.00 | 0.00 | 0.00 | 96 | 1018.1 |
| 20260906085248 | 21 | 258 | 0.0 | 0.0 | 0.00 | 0.00 | 0.00 | 96 | 1017.8 |
| 20260906084742 | 21 | 271 | 0.0 | 1.6 | 0.00 | 0.00 | 0.00 | 96 | 1018.0 |
| 20260906084236 | 21 | 255 | 0.0 | 0.0 | 0.00 | 0.00 | 0.00 | 96 | 1018.1 |
| 20260906083731 | 21 | 270 | 0.0 | 3.2 | 0.00 | 0.00 | 0.00 | 96 | 1018.1 |
| 20260906083226 | 21 | 260 | 0.0 | 3.2 | 0.00 | 0.00 | 0.00 | 96 | 1018.0 |
| 20260906082721 | 21 | 282 | 0.0 | 3.2 | 0.00 | 0.00 | 0.00 | 97 | 1018.3 |
| 20260906082211 | 21 | 258 | 0.0 | 0.0 | 0.00 | 0.00 | 0.00 | 97 | 1018.2 |
| 20260906081707 | 21 | 259 | 1.6 | 3.2 | 0.00 | 0.00 | 0.00 | 97 | 1018.2 |
| 20260906081156 | 21 | 303 | 0.0 | 3.2 | 0.00 | 0.00 | 0.00 | 97 | 1018.2 |
| 20260906080653 | 21 | 280 | 0.0 | 3.2 | 0.00 | 0.00 | 0.00 | 97 | 1018.3 |
| 20260906080148 | 21 | 272 | 1.6 | 3.2 | 0.00 | 0.00 | 0.00 | 97 | 1018.0 |
| 20260906075642 | 21 | 271 | 0.0 | 1.6 | 0.00 | 0.00 | 0.00 | 97 | 1018.0 |
| 20260906075137 | 21 | 260 | 0.0 | 1.6 | 0.00 | 0.00 | 0.00 | 97 | 1018.1 |
| 20260906074632 | 21 | 257 | 0.0 | 0.0 | 0.00 | 0.00 | 0.00 | 97 | 1018.4 |
| 20260906074131 | 21 | 289 | 0.0 | 4.8 | 0.00 | 0.00 | 0.00 | 97 | 1018.1 |
| 20260906073626 | 21 | 258 | 0.0 | 0.0 | 0.00 | 0.00 | 0.00 | 97 | 1018.0 |
| 20260906073122 | 21 | 300 | 3.2 | 4.8 | 0.00 | 0.00 | 0.00 | 97 | 1018.1 |
| 20260906072617 | 21 | 259 | 0.0 | 0.0 | 0.00 | 0.00 | 0.00 | 97 | 1018.3 |
| 20260906072112 | 21 | 262 | 0.0 | 0.0 | 0.00 | 0.00 | 0.00 | 97 | 1018.4 |
| 20260906071608 | 21 | 264 | 0.0 | 0.0 | 0.00 | 0.00 | 0.00 | 96 | 1018.4 |
| 20260906071103 | 21 | 259 | 0.0 | 0.0 | 0.00 | 0.00 | 0.00 | 96 | 1018.4 |
| 20260906070600 | 21 | 285 | 0.0 | 1.6 | 0.00 | 0.00 | 0.00 | 96 | 1018.4 |
| 20260906070055 | 21 | 271 | 0.0 | 0.0 | 0.00 | 0.00 | 0.00 | 96 | 1018.3 |
| 20260906065554 | 21 | 274 | 0.0 | 0.0 | 0.00 | 0.00 | 0.00 | 95 | 1018.3 |
| 20260906065050 | 21 | 262 | 0.0 | 0.0 | 0.00 | 0.00 | 0.00 | 95 | 1018.3 |
| 20260906064546 | 21 | 262 | 0.0 | 0.0 | 0.00 | 0.00 | 0.00 | 96 | 1018.5 |
| 20260906064041 | 21 | 266 | 0.0 | 0.0 | 0.00 | 0.00 | 0.00 | 96 | 1018.5 |
| 20260906063536 | 21 | 260 | 0.0 | 0.0 | 0.00 | 0.00 | 0.00 | 95 | 1018.4 |
| 20260906063032 | 21 | 263 | 0.0 | 0.0 | 0.00 | 0.00 | 0.00 | 96 | 1018.7 |
| 20260906062527 | 21 | 303 | 1.6 | 1.6 | 0.00 | 0.00 | 0.00 | 96 | 1018.4 |
| 20260906062021 | 21 | 277 | 0.0 | 6.4 | 0.00 | 0.00 | 0.00 | 95 | 1018.6 |
| 20260906061518 | 21 | 307 | 0.0 | 0.0 | 0.00 | 0.00 | 0.00 | 95 | 1018.7 |
| 20260906061017 | 21 | 284 | 0.0 | 6.4 | 0.00 | 0.00 | 0.00 | 95 | 1018.5 |
| 20260906060513 | 21 | 260 | 0.0 | 3.2 | 0.00 | 0.00 | 0.00 | 95 | 1018.4 |
| 20260906060010 | 21 | 264 | 0.0 | 3.2 | 0.00 | 0.00 | 0.00 | 95 | 1018.7 |
| 20260906055505 | 21 | 341 | 0.0 | 9.7 | 0.00 | 0.00 | 0.00 | 95 | 1018.5 |
| 20260906055000 | 21 | 275 | 0.0 | 4.8 | 0.00 | 0.00 | 0.00 | 95 | 1018.3 |
| 20260906054455 | 21 | 260 | 0.0 | 1.6 | 0.00 | 0.00 | 0.00 | 95 | 1018.6 |
| 20260906053950 | 21 | 278 | 0.0 | 6.4 | 0.00 | 0.00 | 0.00 | 95 | 1018.5 |
| 20260906053447 | 22 | 314 | 0.0 | 6.4 | 0.00 | 0.00 | 0.00 | 95 | 1018.6 |
| 20260906052942 | 22 | 274 | 0.0 | 0.0 | 0.00 | 0.00 | 0.00 | 95 | 1018.6 |
| 20260906052438 | 22 | 334 | 0.0 | 11.3 | 0.00 | 0.00 | 0.00 | 95 | 1018.4 |
| 20260906051935 | 22 | 262 | 0.0 | 4.8 | 0.00 | 0.00 | 0.00 | 95 | 1018.3 |
| 20260906051430 | 22 | 258 | 0.0 | 1.6 | 0.00 | 0.00 | 0.00 | 95 | 1018.3 |
| 20260906050926 | 22 | 246 | 0.0 | 3.2 | 0.00 | 0.00 | 0.00 | 95 | 1018.3 |
| 20260906050425 | 22 | 258 | 0.0 | 4.8 | 0.00 | 0.00 | 0.00 | 96 | 1018.4 |
| 20260906045924 | 22 | 277 | 1.6 | 3.2 | 0.00 | 0.00 | 0.00 | 96 | 1018.1 |
| 20260906045423 | 22 | 297 | 1.6 | 9.7 | 0.00 | 0.00 | 0.00 | 95 | 1018.2 |
| 20260906044919 | 22 | 264 | 0.0 | 1.6 | 0.00 | 0.00 | 0.00 | 95 | 1017.9 |
| 20260906044414 | 22 | 288 | 0.0 | 6.4 | 0.00 | 0.00 | 0.00 | 95 | 1018.0 |
| 20260906043910 | 22 | 247 | 0.0 | 9.7 | 0.00 | 0.00 | 0.00 | 95 | 1017.6 |
| 20260906043405 | 22 | 238 | 0.0 | 4.8 | 0.00 | 0.00 | 0.00 | 95 | 1017.7 |
| 20260906042900 | 22 | 312 | 0.0 | 11.3 | 0.00 | 0.00 | 0.00 | 94 | 1017.5 |
| 20260906042359 | 22 | 290 | 0.0 | 11.3 | 0.00 | 0.00 | 0.00 | 94 | 1017.4 |
| 20260906041854 | 22 | 264 | 1.6 | 3.2 | 0.00 | 0.00 | 0.00 | 94 | 1017.5 |
| 20260906041350 | 22 | 281 | 0.0 | 1.6 | 0.00 | 0.00 | 0.00 | 94 | 1017.2 |
| 20260906040845 | 23 | 290 | 0.0 | 4.8 | 0.00 | 0.00 | 0.00 | 93 | 1017.2 |
| 20260906040341 | 23 | 259 | 0.0 | 3.2 | 0.00 | 0.00 | 0.00 | 93 | 1017.3 |
| 20260906035836 | 23 | 274 | 0.0 | 1.6 | 0.00 | 0.00 | 0.00 | 93 | 1017.3 |
| 20260906035331 | 23 | 283 | 1.6 | 4.8 | 0.00 | 0.00 | 0.00 | 92 | 1017.1 |
| 20260906034826 | 23 | 278 | 0.0 | 1.6 | 0.00 | 0.00 | 0.00 | 92 | 1017.4 |
| 20260906034321 | 23 | 271 | 0.0 | 4.8 | 0.00 | 0.00 | 0.00 | 92 | 1017.2 |
| 20260906033817 | 23 | 307 | 0.0 | 6.4 | 0.00 | 0.00 | 0.00 | 92 | 1017.2 |
| 20260906033316 | 23 | 275 | 0.0 | 3.2 | 0.00 | 0.00 | 0.00 | 92 | 1017.0 |
| 20260906032813 | 23 | 280 | 0.0 | 6.4 | 0.00 | 0.00 | 0.00 | 93 | 1017.1 |
| 20260906032308 | 23 | 262 | 0.0 | 1.6 | 0.00 | 0.00 | 0.00 | 93 | 1017.2 |
| 20260906031803 | 23 | 288 | 0.0 | 0.0 | 0.00 | 0.00 | 0.00 | 93 | 1016.8 |
| 20260906031259 | 23 | 266 | 0.0 | 0.0 | 0.00 | 0.00 | 0.00 | 93 | 1016.9 |
| 20260906030758 | 23 | 259 | 0.0 | 3.2 | 0.00 | 0.00 | 0.00 | 92 | 1016.9 |
| 20260906030254 | 23 | 285 | 0.0 | 3.2 | 0.00 | 0.00 | 0.00 | 92 | 1016.8 |
| 20260906025753 | 24 | 283 | 1.6 | 3.2 | 0.00 | 0.00 | 0.00 | 92 | 1016.9 |
| 20260906025248 | 24 | 286 | 0.0 | 4.8 | 0.00 | 0.00 | 0.00 | 91 | 1017.0 |
| 20260906024747 | 24 | 285 | 3.2 | 6.4 | 0.00 | 0.00 | 0.00 | 91 | 1017.0 |
| 20260906024245 | 24 | 266 | 0.0 | 3.2 | 0.00 | 0.00 | 0.00 | 91 | 1017.1 |
| 20260906023741 | 24 | 268 | 0.0 | 0.0 | 0.00 | 0.00 | 0.00 | 91 | 1017.0 |
| 20260906023237 | 24 | 256 | 0.0 | 0.0 | 0.00 | 0.00 | 0.00 | 91 | 1016.9 |
| 20260906022732 | 24 | 275 | 1.6 | 4.8 | 0.00 | 0.00 | 0.00 | 91 | 1016.9 |
| 20260906022227 | 25 | 282 | 0.0 | 4.8 | 0.00 | 0.00 | 0.00 | 91 | 1016.7 |
| 20260906021723 | 25 | 263 | 0.0 | 6.4 | 0.00 | 0.00 | 0.00 | 90 | 1016.9 |
| 20260906021222 | 25 | 261 | 0.0 | 1.6 | 0.00 | 0.00 | 0.00 | 90 | 1016.7 |
| 20260906020717 | 25 | 269 | 0.0 | 1.6 | 0.00 | 0.00 | 0.00 | 90 | 1016.8 |
| 20260906020211 | 25 | 263 | 0.0 | 12.9 | 0.00 | 0.00 | 0.00 | 90 | 1016.7 |
| 20260906015706 | 25 | 245 | 4.8 | 9.7 | 0.00 | 0.00 | 0.00 | 90 | 1016.8 |
| 20260906015205 | 25 | 274 | 1.6 | 4.8 | 0.00 | 0.00 | 0.00 | 89 | 1016.6 |
| 20260906014705 | 25 | 271 | 0.0 | 11.3 | 0.00 | 0.00 | 0.00 | 89 | 1016.7 |
| 20260906014201 | 25 | 305 | 3.2 | 6.4 | 0.00 | 0.00 | 0.00 | 89 | 1016.7 |
| 20260906013657 | 25 | 297 | 1.6 | 6.4 | 0.00 | 0.00 | 0.00 | 89 | 1016.5 |
| 20260906013152 | 26 | 276 | 1.6 | 4.8 | 0.00 | 0.00 | 0.00 | 88 | 1016.5 |
| 20260906012651 | 26 | 269 | 0.0 | 3.2 | 0.00 | 0.00 | 0.00 | 88 | 1016.3 |
| 20260906012146 | 26 | 272 | 4.8 | 9.7 | 0.00 | 0.00 | 0.00 | 87 | 1016.2 |
| 20260906011642 | 26 | 274 | 6.4 | 11.3 | 0.00 | 0.00 | 0.00 | 87 | 1016.3 |
| 20260906011142 | 26 | 280 | 3.2 | 11.3 | 0.00 | 0.00 | 0.00 | 86 | 1016.5 |
| 20260906010637 | 26 | 316 | 3.2 | 9.7 | 0.00 | 0.00 | 0.00 | 86 | 1016.3 |
| 20260906010134 | 27 | 264 | 0.0 | 3.2 | 0.00 | 0.00 | 0.00 | 86 | 1016.1 |
| 20260906005633 | 27 | 262 | 1.6 | 12.9 | 0.00 | 0.00 | 0.00 | 85 | 1016.2 |
| 20260906005133 | 27 | 272 | 3.2 | 11.3 | 0.00 | 0.00 | 0.00 | 85 | 1016.2 |
| 20260906004632 | 27 | 274 | 4.8 | 6.4 | 0.00 | 0.00 | 0.00 | 84 | 1016.0 |
| 20260906004127 | 27 | 265 | 3.2 | 16.1 | 0.00 | 0.00 | 0.00 | 84 | 1015.8 |
| 20260906003622 | 27 | 256 | 8.0 | 12.9 | 0.00 | 0.00 | 0.00 | 83 | 1015.6 |
| 20260906003118 | 28 | 277 | 4.8 | 9.7 | 0.00 | 0.00 | 0.00 | 82 | 1015.8 |
| 20260906002613 | 28 | 278 | 3.2 | 11.3 | 0.00 | 0.00 | 0.00 | 82 | 1015.8 |
| 20260906002107 | 28 | 301 | 9.7 | 12.9 | 0.00 | 0.00 | 0.00 | 81 | 1015.7 |
| 20260906001602 | 28 | 311 | 3.2 | 6.4 | 0.00 | 0.00 | 0.00 | 81 | 1015.7 |
| 20260906001057 | 28 | 306 | 1.6 | 4.8 | 0.00 | 0.00 | 0.00 | 80 | 1015.7 |
| 20260906000553 | 29 | 261 | 4.8 | 11.3 | 0.00 | 0.00 | 0.00 | 80 | 1015.7 |
| 20260906000048 | 29 | 265 | 3.2 | 9.7 | 0.00 | 0.00 | 0.00 | 79 | 1015.7 |
| 20260905235547 | 29 | 285 | 4.8 | 6.4 | 0.00 | 0.00 | 0.00 | 79 | 1015.6 |
| 20260905235042 | 30 | 286 | 8.0 | 11.3 | 0.00 | 0.00 | 0.00 | 78 | 1015.6 |
| 20260905234538 | 30 | 311 | 3.2 | 9.7 | 0.00 | 0.00 | 0.00 | 78 | 1015.9 |
| 20260905234033 | 30 | 272 | 3.2 | 9.7 | 0.00 | 0.00 | 0.00 | 77 | 1015.5 |
| 20260905233532 | 30 | 250 | 3.2 | 11.3 | 0.00 | 0.00 | 0.00 | 77 | 1015.7 |
| 20260905233027 | 31 | 277 | 0.0 | 12.9 | 0.00 | 0.00 | 0.00 | 76 | 1015.4 |
| 20260905232522 | 31 | 267 | 1.6 | 9.7 | 0.00 | 0.00 | 0.00 | 76 | 1015.3 |
| 20260905232018 | 31 | 294 | 3.2 | 14.5 | 0.00 | 0.00 | 0.00 | 76 | 1015.4 |
| 20260905231513 | 31 | 297 | 4.8 | 11.3 | 0.00 | 0.00 | 0.00 | 76 | 1015.2 |
| 20260905231010 | 31 | 314 | 4.8 | 14.5 | 0.00 | 0.00 | 0.00 | 75 | 1015.0 |
| 20260905230508 | 32 | 241 | 6.4 | 17.7 | 0.00 | 0.00 | 0.00 | 74 | 1015.1 |
| 20260905230007 | 32 | 303 | 3.2 | 9.7 | 0.00 | 0.00 | 0.00 | 73 | 1015.0 |
| 20260905225502 | 32 | 263 | 12.9 | 17.7 | 0.00 | 0.00 | 0.00 | 72 | 1015.1 |
| 20260905224957 | 32 | 261 | 0.0 | 6.4 | 0.00 | 0.00 | 0.00 | 71 | 1015.1 |
| 20260905224452 | 33 | 275 | 1.6 | 9.7 | 0.00 | 0.00 | 0.00 | 70 | 1015.1 |
| 20260905223951 | 33 | 233 | 1.6 | 3.2 | 0.00 | 0.00 | 0.00 | 69 | 1015.0 |
| 20260905223449 | 33 | 261 | 1.6 | 4.8 | 0.00 | 0.00 | 0.00 | 68 | 1015.1 |
| 20260905222944 | 33 | 266 | 0.0 | 3.2 | 0.00 | 0.00 | 0.00 | 70 | 1015.1 |
| 20260905222444 | 33 | 250 | 3.2 | 4.8 | 0.00 | 0.00 | 0.00 | 68 | 1015.1 |
| 20260905221939 | 33 | 268 | 4.8 | 4.8 | 0.00 | 0.00 | 0.00 | 68 | 1015.3 |
| 20260905221436 | 33 | 266 | 4.8 | 11.3 | 0.00 | 0.00 | 0.00 | 68 | 1015.1 |
| 20260905220932 | 33 | 248 | 1.6 | 4.8 | 0.00 | 0.00 | 0.00 | 68 | 1015.1 |
| 20260905220428 | 33 | 267 | 6.4 | 6.4 | 0.00 | 0.00 | 0.00 | 67 | 1015.1 |
| 20260905215926 | 33 | 252 | 0.0 | 4.8 | 0.00 | 0.00 | 0.00 | 67 | 1014.9 |
| 20260905215417 | 33 | 269 | 1.6 | 9.7 | 0.00 | 0.00 | 0.00 | 67 | 1015.0 |
| 20260905214913 | 35 | 264 | 0.0 | 3.2 | 0.00 | 0.00 | 0.00 | 65 | 1015.2 |
| 20260905214408 | 34 | 286 | 0.0 | 6.4 | 0.00 | 0.00 | 0.00 | 65 | 1015.0 |
| 20260905213907 | 35 | 297 | 3.2 | 9.7 | 0.00 | 0.00 | 0.00 | 64 | 1015.0 |
| 20260905213404 | 33 | 268 | 1.6 | 4.8 | 0.00 | 0.00 | 0.00 | 66 | 1014.9 |
| 20260905212859 | 34 | 243 | 3.2 | 6.4 | 0.00 | 0.00 | 0.00 | 65 | 1015.0 |
| 20260905212354 | 35 | 266 | 0.0 | 3.2 | 0.00 | 0.00 | 0.00 | 64 | 1014.6 |
| 20260905211853 | 35 | 248 | 0.0 | 3.2 | 0.00 | 0.00 | 0.00 | 64 | 1014.8 |
| 20260905211349 | 35 | 259 | 0.0 | 9.7 | 0.00 | 0.00 | 0.00 | 63 | 1014.9 |
| 20260905210840 | 33 | 261 | 0.0 | 4.8 | 0.00 | 0.00 | 0.00 | 66 | 1014.9 |
| 20260905210340 | 35 | 237 | 0.0 | 4.8 | 0.00 | 0.00 | 0.00 | 64 | 1015.0 |
| 20260905205839 | 35 | 259 | 0.0 | 6.4 | 0.00 | 0.00 | 0.00 | 64 | 1015.0 |
| 20260905205333 | 34 | 258 | 0.0 | 1.6 | 0.00 | 0.00 | 0.00 | 67 | 1015.0 |
| 20260905204833 | 34 | 250 | 0.0 | 3.2 | 0.00 | 0.00 | 0.00 | 68 | 1015.1 |
| 20260905204329 | 34 | 294 | 3.2 | 9.7 | 0.00 | 0.00 | 0.00 | 67 | 1015.1 |
| 20260905203827 | 33 | 263 | 0.0 | 11.3 | 0.00 | 0.00 | 0.00 | 69 | 1015.0 |
| 20260905203324 | 33 | 266 | 1.6 | 6.4 | 0.00 | 0.00 | 0.00 | 69 | 1015.2 |
| 20260905202819 | 33 | 254 | 6.4 | 9.7 | 0.00 | 0.00 | 0.00 | 69 | 1015.2 |
| 20260905202314 | 33 | 271 | 1.6 | 9.7 | 0.00 | 0.00 | 0.00 | 69 | 1015.3 |
| 20260905201809 | 34 | 262 | 0.0 | 3.2 | 0.00 | 0.00 | 0.00 | 67 | 1015.1 |
| 20260905201304 | 34 | 258 | 0.0 | 3.2 | 0.00 | 0.00 | 0.00 | 69 | 1015.3 |
| 20260905200759 | 33 | 244 | 6.4 | 11.3 | 0.00 | 0.00 | 0.00 | 69 | 1015.4 |
| 20260905200255 | 33 | 250 | 0.0 | 6.4 | 0.00 | 0.00 | 0.00 | 70 | 1015.3 |
| 20260905195753 | 34 | 267 | 1.6 | 4.8 | 0.00 | 0.00 | 0.00 | 66 | 1015.4 |
| 20260905195248 | 34 | 252 | 0.0 | 3.2 | 0.00 | 0.00 | 0.00 | 68 | 1015.3 |
| 20260905194744 | 34 | 249 | 0.0 | 3.2 | 0.00 | 0.00 | 0.00 | 67 | 1015.4 |
| 20260905194242 | 35 | 280 | 4.8 | 6.4 | 0.00 | 0.00 | 0.00 | 67 | 1015.5 |
| 20260905193737 | 35 | 259 | 0.0 | 1.6 | 0.00 | 0.00 | 0.00 | 66 | 1015.3 |
| 20260905193232 | 35 | 301 | 1.6 | 3.2 | 0.00 | 0.00 | 0.00 | 65 | 1015.3 |
| 20260905192727 | 35 | 261 | 0.0 | 6.4 | 0.00 | 0.00 | 0.00 | 68 | 1015.5 |
| 20260905192224 | 34 | 246 | 0.0 | 1.6 | 0.00 | 0.00 | 0.00 | 68 | 1015.5 |
| 20260905191723 | 34 | 250 | 0.0 | 1.6 | 0.00 | 0.00 | 0.00 | 68 | 1015.3 |
| 20260905191221 | 35 | 244 | 6.4 | 9.7 | 0.00 | 0.00 | 0.00 | 67 | 1015.6 |
| 20260905190720 | 34 | 245 | 4.8 | 11.3 | 0.00 | 0.00 | 0.00 | 67 | 1015.5 |
| 20260905190219 | 33 | 265 | 0.0 | 3.2 | 0.00 | 0.00 | 0.00 | 68 | 1015.5 |
| 20260905185718 | 34 | 305 | 3.2 | 4.8 | 0.00 | 0.00 | 0.00 | 67 | 1015.6 |
| 20260905185213 | 34 | 238 | 3.2 | 9.7 | 0.00 | 0.00 | 0.00 | 68 | 1015.6 |
| 20260905184713 | 35 | 237 | 3.2 | 9.7 | 0.00 | 0.00 | 0.00 | 68 | 1015.5 |
| 20260905184212 | 34 | 285 | 4.8 | 6.4 | 0.00 | 0.00 | 0.00 | 65 | 1015.7 |
| 20260905183706 | 34 | 183 | 4.8 | 6.4 | 0.00 | 0.00 | 0.00 | 67 | 1016.0 |
| 20260905183202 | 34 | 243 | 1.6 | 9.7 | 0.00 | 0.00 | 0.00 | 67 | 1015.8 |
| 20260905182700 | 34 | 286 | 1.6 | 6.4 | 0.00 | 0.00 | 0.00 | 67 | 1015.8 |
| 20260905182154 | 34 | 259 | 0.0 | 6.4 | 0.00 | 0.00 | 0.00 | 67 | 1015.8 |
| 20260905181650 | 35 | 218 | 0.0 | 1.6 | 0.00 | 0.00 | 0.00 | 68 | 1015.9 |
| 20260905181149 | 34 | 280 | 1.6 | 3.2 | 0.00 | 0.00 | 0.00 | 69 | 1015.7 |
| 20260905180644 | 34 | 274 | 0.0 | 4.8 | 0.00 | 0.00 | 0.00 | 69 | 1015.8 |
| 20260905180139 | 34 | 245 | 0.0 | 3.2 | 0.00 | 0.00 | 0.00 | 69 | 1015.7 |
| 20260905175637 | 33 | 263 | 0.0 | 1.6 | 0.00 | 0.00 | 0.00 | 69 | 1016.1 |
| 20260905175133 | 33 | 222 | 0.0 | 6.4 | 0.00 | 0.00 | 0.00 | 70 | 1015.9 |
| 20260905174629 | 33 | 264 | 0.0 | 1.6 | 0.00 | 0.00 | 0.00 | 70 | 1016.0 |
| 20260905174124 | 33 | 301 | 0.0 | 6.4 | 0.00 | 0.00 | 0.00 | 69 | 1016.0 |
| 20260905173620 | 33 | 280 | 0.0 | 6.4 | 0.00 | 0.00 | 0.00 | 71 | 1016.2 |
| 20260905173116 | 35 | 234 | 1.6 | 6.4 | 0.00 | 0.00 | 0.00 | 68 | 1016.1 |
| 20260905172614 | 33 | 293 | 1.6 | 4.8 | 0.00 | 0.00 | 0.00 | 68 | 1016.2 |
| 20260905172104 | 33 | 240 | 0.0 | 4.8 | 0.00 | 0.00 | 0.00 | 69 | 1016.1 |
| 20260905171600 | 33 | 268 | 1.6 | 9.7 | 0.00 | 0.00 | 0.00 | 71 | 1016.2 |
| 20260905171056 | 33 | 239 | 0.0 | 1.6 | 0.00 | 0.00 | 0.00 | 69 | 1016.3 |
| 20260905170553 | 33 | 276 | 1.6 | 6.4 | 0.00 | 0.00 | 0.00 | 72 | 1016.2 |
| 20260905170048 | 33 | 290 | 0.0 | 4.8 | 0.00 | 0.00 | 0.00 | 71 | 1016.3 |
| 20260905165542 | 33 | 243 | 1.6 | 3.2 | 0.00 | 0.00 | 0.00 | 70 | 1016.4 |
| 20260905165037 | 33 | 249 | 1.6 | 4.8 | 0.00 | 0.00 | 0.00 | 71 | 1016.3 |
| 20260905164532 | 33 | 249 | 0.0 | 6.4 | 0.00 | 0.00 | 0.00 | 71 | 1016.4 |
| 20260905164027 | 34 | 274 | 1.6 | 1.6 | 0.00 | 0.00 | 0.00 | 68 | 1016.4 |
| 20260905163523 | 33 | 272 | 0.0 | 6.4 | 0.00 | 0.00 | 0.00 | 71 | 1016.5 |
| 20260905163019 | 33 | 259 | 0.0 | 0.0 | 0.00 | 0.00 | 0.00 | 72 | 1016.2 |
| 20260905162515 | 32 | 303 | 1.6 | 3.2 | 0.00 | 0.00 | 0.00 | 71 | 1016.5 |
| 20260905162009 | 33 | 259 | 0.0 | 9.7 | 0.00 | 0.00 | 0.00 | 72 | 1016.6 |
| 20260905161508 | 32 | 242 | 1.6 | 3.2 | 0.00 | 0.00 | 0.00 | 74 | 1016.3 |
| 20260905161006 | 32 | 274 | 0.0 | 3.2 | 0.00 | 0.00 | 0.00 | 73 | 1016.4 |
| 20260905160459 | 32 | 250 | 0.0 | 3.2 | 0.00 | 0.00 | 0.00 | 73 | 1016.2 |
| 20260905155959 | 31 | 271 | 0.0 | 9.7 | 0.00 | 0.00 | 0.00 | 74 | 1016.5 |
| 20260905155454 | 32 | 250 | 4.8 | 9.7 | 0.00 | 0.00 | 0.00 | 73 | 1016.3 |
| 20260905154953 | 31 | 260 | 0.0 | 4.8 | 0.00 | 0.00 | 0.00 | 75 | 1016.4 |
| 20260905154448 | 31 | 258 | 1.6 | 4.8 | 0.00 | 0.00 | 0.00 | 74 | 1016.1 |
| 20260905153943 | 31 | 270 | 3.2 | 9.7 | 0.00 | 0.00 | 0.00 | 74 | 1016.4 |
| 20260905153440 | 31 | 261 | 3.2 | 4.8 | 0.00 | 0.00 | 0.00 | 73 | 1016.3 |
| 20260905152939 | 31 | 265 | 4.8 | 4.8 | 0.00 | 0.00 | 0.00 | 73 | 1016.3 |
| 20260905152439 | 31 | 270 | 1.6 | 1.6 | 0.00 | 0.00 | 0.00 | 73 | 1016.0 |
| 20260905151928 | 32 | 182 | 4.8 | 6.4 | 0.00 | 0.00 | 0.00 | 73 | 1016.3 |
| 20260905151419 | 31 | 281 | 0.0 | 3.2 | 0.00 | 0.00 | 0.00 | 73 | 1016.0 |
| 20260905150918 | 31 | 243 | 0.0 | 0.0 | 0.00 | 0.00 | 0.00 | 73 | 1016.0 |
| 20260905150413 | 31 | 270 | 0.0 | 6.4 | 0.00 | 0.00 | 0.00 | 74 | 1016.1 |
| 20260905145909 | 31 | 266 | 0.0 | 0.0 | 0.00 | 0.00 | 0.00 | 74 | 1015.9 |
| 20260905145409 | 31 | 255 | 0.0 | 0.0 | 0.00 | 0.00 | 0.00 | 73 | 1016.1 |
| 20260905144904 | 31 | 260 | 0.0 | 4.8 | 0.00 | 0.00 | 0.00 | 74 | 1016.0 |
| 20260905144359 | 30 | 245 | 0.0 | 1.6 | 0.00 | 0.00 | 0.00 | 76 | 1015.9 |
| 20260905143857 | 30 | 252 | 1.6 | 4.8 | 0.00 | 0.00 | 0.00 | 76 | 1015.8 |
| 20260905143351 | 30 | 262 | 1.6 | 6.4 | 0.00 | 0.00 | 0.00 | 76 | 1015.8 |
| 20260905142846 | 31 | 253 | 0.0 | 1.6 | 0.00 | 0.00 | 0.00 | 76 | 1015.8 |
| 20260905142344 | 31 | 264 | 0.0 | 1.6 | 0.00 | 0.00 | 0.00 | 74 | 1015.7 |
| 20260905141841 | 31 | 262 | 0.0 | 0.0 | 0.00 | 0.00 | 0.00 | 76 | 1015.4 |
| 20260905141336 | 30 | 250 | 0.0 | 0.0 | 0.00 | 0.00 | 0.00 | 75 | 1016.0 |
| 20260905140832 | 30 | 268 | 0.0 | 0.0 | 0.00 | 0.00 | 0.00 | 76 | 1015.7 |
| 20260905140332 | 30 | 259 | 0.0 | 3.2 | 0.00 | 0.00 | 0.00 | 77 | 1015.7 |
| 20260905135830 | 30 | 246 | 0.0 | 0.0 | 0.00 | 0.00 | 0.00 | 79 | 1015.8 |
| 20260905135326 | 30 | 234 | 0.0 | 0.0 | 0.00 | 0.00 | 0.00 | 77 | 1015.7 |
| 20260905134821 | 30 | 266 | 0.0 | 0.0 | 0.00 | 0.00 | 0.00 | 79 | 1015.5 |
| 20260905134314 | 29 | 253 | 0.0 | 0.0 | 0.00 | 0.00 | 0.00 | 79 | 1015.5 |
| 20260905133809 | 29 | 272 | 0.0 | 0.0 | 0.00 | 0.00 | 0.00 | 80 | 1015.5 |
| 20260905133305 | 29 | 263 | 0.0 | 0.0 | 0.00 | 0.00 | 0.00 | 81 | 1015.6 |
| 20260905132803 | 28 | 265 | 0.0 | 0.0 | 0.00 | 0.00 | 0.00 | 82 | 1015.5 |
| 20260905132259 | 28 | 278 | 0.0 | 1.6 | 0.00 | 0.00 | 0.00 | 84 | 1015.7 |
| 20260905131754 | 27 | 234 | 0.0 | 0.0 | 0.00 | 0.00 | 0.00 | 86 | 1015.5 |